Weather History for Morristown, NJ

Change the Weather History Date:

Wednesday, August 21, 2013

  Actual Average Record
Temperature  
Mean Temperature 72 °F -  
Max Temperature 86 °F 80 °F 96 °F (1983)
Min Temperature 59 °F 57 °F 41 °F (1940)
Cooling Degree Days 8    
Growing Degree Days 22 (Base 50)    
Moisture  
Dew Point 61 °F    
Average Humidity 80    
Maximum Humidity 100    
Minimum Humidity 37    
Precipitation  
Precipitation 0.00 in - - ()
Sea Level Pressure  
Sea Level Pressure 30.14 in    
Wind  
Wind Speed 1 mph (WSW)    
Max Wind Speed 12 mph    
Max Gust Speed 17 mph    
Visibility 5 miles    
Events Fog    
Averages and records for this station are not official NWS values.
T = Trace of Precipitation, MM = Missing Value Source: NWS Daily Summary

Daily Weather History Graph

Daily Weather History Graph

Search for Another Location

Airport:

Trip Planner

Search our weather history database for the weather conditions in past years. The results will help you decide how hot, cold, wet, or windy it might be!

Date:

Astronomy

Aug. 21, 2013 Rise Set
Actual Time 6:13 AM EDT 7:46 PM EDT
Civil Twilight 5:45 AM EDT 8:15 PM EDT
Nautical Twilight 5:10 AM EDT 8:50 PM EDT
Astronomical Twilight 4:33 AM EDT 9:27 PM EDT
Moon 7:53 PM EDT (8/21) 6:51 AM EDT (8/21)
Length of Visible Light 14h 30m
Length of Day
13h 32m
Full, 100% of the Moon is Illuminated
Aug 21
Full
Aug 28
Last Quarter
Sep 5
New
Sep 12
First Quarter
Sep 19
Full

Hourly Weather History & Observations

Time (EDT) Temp. Heat Index Dew Point Humidity Pressure Visibility Wind Dir Wind Speed Gust Speed Precip Events Conditions
12:15 AM 66.2 °F - 62.6 °F 88% 30.14 in 1.0 mi Calm Calm - N/A   Mist
12:35 AM 66.2 °F - 64.4 °F 94% 30.14 in 0.2 mi Calm Calm - N/A Fog Fog
12:55 AM 66.2 °F - 64.4 °F 94% 30.15 in 1.0 mi Calm Calm - N/A   Mist
1:15 AM 66.2 °F - 62.6 °F 88% 30.14 in 7.0 mi Calm Calm - N/A   Clear
1:35 AM 64.4 °F - 62.6 °F 94% 30.14 in 0.2 mi Calm Calm - N/A Fog Fog
1:55 AM 64.4 °F - 62.6 °F 94% 30.14 in 7.0 mi Calm Calm - N/A   Scattered Clouds
2:15 AM 64.4 °F - 60.8 °F 88% 30.14 in 7.0 mi Calm Calm - N/A   Clear
2:35 AM 64.4 °F - 60.8 °F 88% 30.14 in 0.5 mi Calm Calm - N/A Fog Fog
2:55 AM 64.4 °F - 60.8 °F 88% 30.14 in 0.8 mi Calm Calm - N/A   Mostly Cloudy
3:15 AM 64.4 °F - 60.8 °F 88% 30.15 in 7.0 mi Calm Calm - N/A   Scattered Clouds
3:35 AM 64.4 °F - 60.8 °F 88% 30.15 in 5.0 mi Calm Calm - N/A   Scattered Clouds
3:55 AM 62.6 °F - 60.8 °F 94% 30.15 in 1.5 mi Calm Calm - N/A   Mist
4:15 AM 62.6 °F - 59.0 °F 88% 30.15 in 0.8 mi Calm Calm - N/A   Mostly Cloudy
4:35 AM 64.4 °F - 60.8 °F 88% 30.16 in 1.8 mi Calm Calm - N/A   Mostly Cloudy
4:55 AM 62.6 °F - 60.8 °F 94% 30.16 in 2.0 mi Calm Calm - N/A   Mostly Cloudy
5:15 AM 62.6 °F - 59.0 °F 88% 30.16 in 7.0 mi Calm Calm - N/A   Mostly Cloudy
5:35 AM 62.6 °F - 59.0 °F 88% 30.17 in 2.5 mi Calm Calm - N/A   Scattered Clouds
5:55 AM 60.8 °F - 57.2 °F 88% 30.17 in 1.2 mi Calm Calm - N/A   Mist
6:15 AM 60.8 °F - 57.2 °F 88% 30.18 in 1.2 mi Calm Calm - N/A   Scattered Clouds
6:35 AM 60.8 °F - 59.0 °F 94% 30.18 in 2.5 mi Calm Calm - N/A   Scattered Clouds
6:45 AM 59.0 °F - 59.0 °F 100% 30.18 in 3.0 mi Calm Calm - N/A Fog Haze
7:45 AM 64.4 °F - 62.6 °F 94% 30.19 in 5.0 mi Calm Calm - N/A   Haze
8:45 AM 71.6 °F - 64.4 °F 78% 30.19 in 6.0 mi Calm Calm - N/A   Haze
9:45 AM 77.0 °F - 66.2 °F 69% 30.19 in 8.0 mi Calm Calm - N/A   Clear
10:45 AM 82.4 °F 83.4 °F 62.6 °F 51% 30.19 in 8.0 mi SSE 4.6 mph - N/A   Clear
11:45 AM 82.4 °F 82.5 °F 59.0 °F 45% 30.18 in 8.0 mi WSW 3.5 mph - N/A   Clear
12:45 PM 84.2 °F 83.8 °F 59.0 °F 42% 30.17 in 8.0 mi West 5.8 mph - N/A   Partly Cloudy
1:45 PM 86.0 °F 86.1 °F 60.8 °F 43% 30.14 in 7.0 mi West 6.9 mph - N/A   Partly Cloudy
2:45 PM 86.0 °F - - N/A% 30.13 in 7.0 mi West 6.9 mph - N/A   Partly Cloudy
3:45 PM 86.0 °F 84.9 °F 57.2 °F 37% 30.12 in 7.0 mi West 11.5 mph 17.3 mph N/A   Partly Cloudy
4:45 PM 84.2 °F 83.0 °F 55.4 °F 37% 30.10 in 7.0 mi West 8.1 mph - N/A   Partly Cloudy
5:45 PM 84.2 °F 83.8 °F 59.0 °F 42% 30.09 in 7.0 mi WSW 5.8 mph - N/A   Mostly Cloudy
6:45 PM 82.4 °F 82.9 °F 60.8 °F 48% 30.08 in 7.0 mi West 3.5 mph - N/A   Mostly Cloudy
7:45 PM 71.6 °F - 66.2 °F 83% 30.08 in 7.0 mi Calm Calm - N/A   Mostly Cloudy
8:45 PM 68.0 °F - 64.4 °F 88% 30.08 in 10.0 mi Calm Calm - N/A   Scattered Clouds
9:45 PM 66.2 °F - 64.4 °F 94% 30.09 in 7.0 mi Calm Calm - N/A   Partly Cloudy
10:55 PM 68.0 °F - 64.4 °F 88% 30.07 in 7.0 mi Calm Calm - N/A   Clear
11:15 PM 68.0 °F - 64.4 °F 88% 30.08 in 7.0 mi Calm Calm - N/A   Clear
11:35 PM 68.0 °F - 64.4 °F 88% 30.07 in 4.0 mi Calm Calm - N/A   Scattered Clouds
11:55 PM 68.0 °F - 64.4 °F 88% 30.07 in 4.0 mi Calm Calm - N/A   Scattered Clouds